This is the latest recevied weather packets stored in our database for station/object N0QWM. If no packets are shown the sender has not sent any weather packets the latest 10 day(s).
| Time | Temp. | Humidity | Pressure | Rain* | Wind** | Luminosity | Snow |
|---|---|---|---|---|---|---|---|
| 1788626496 | 35.56° C | 56% | 1019.5 hPa | 0 mm | - | 699 W/m² | - |
| 1788626192 | 35.56° C | 54% | 1019.5 hPa | 0 mm | - | 692 W/m² | - |
| 1788625889 | 34.44° C | 60% | 1019.5 hPa | 0 mm | - | 706 W/m² | - |
| 1788625585 | 33.89° C | 61% | 1019.8 hPa | 0 mm | - | 143 W/m² | - |
| 1788625283 | 33.89° C | 62% | 1019.4 hPa | 0 mm | - | 496 W/m² | - |
| 1788624978 | 34.44° C | 60% | 1019.8 hPa | 0 mm | - | 141 W/m² | - |
| 1788624675 | 34.44° C | 60% | 1019.9 hPa | 0 mm | - | 160 W/m² | - |
| 1788624375 | 35° C | 59% | 1019.9 hPa | 0 mm | - | 698 W/m² | - |
| 1788624069 | 35° C | 60% | 1019.8 hPa | 0 mm | - | 700 W/m² | - |
| 1788623764 | 34.44° C | 64% | 1019.7 hPa | 0 mm | - | 719 W/m² | - |
| 1788623463 | 34.44° C | 61% | 1019.8 hPa | 0 mm | - | 682 W/m² | - |
| 1788623157 | 34.44° C | 60% | 1019.7 hPa | 0 mm | - | 698 W/m² | - |
| 1788622853 | 34.44° C | 61% | 1019.6 hPa | 0 mm | - | 686 W/m² | - |
| 1788622549 | 33.89° C | 63% | 1019.5 hPa | 0 mm | - | 669 W/m² | - |
| 1788622248 | 33.89° C | 65% | 1019.8 hPa | 0 mm | - | 693 W/m² | - |
| 1788621943 | 33.33° C | 67% | 1019.6 hPa | 0 mm | - | 719 W/m² | - |
| 1788621639 | 32.78° C | 70% | 1019.7 hPa | 0 mm | - | 718 W/m² | - |
| 1788621334 | 33.89° C | 64% | 1019.6 hPa | 0 mm | - | 724 W/m² | - |
| 1788621028 | 33.89° C | 66% | 1019.8 hPa | 0 mm | - | 731 W/m² | - |
| 1788620724 | 33.89° C | 65% | 1019.8 hPa | 0 mm | - | 683 W/m² | - |
| 1788620421 | 33.33° C | 67% | 1019.9 hPa | 0 mm | - | 626 W/m² | - |
| 1788620115 | 32.78° C | 69% | 1019.6 hPa | 0 mm | - | 580 W/m² | - |
| 1788619815 | 32.22° C | 71% | 1019.7 hPa | 0 mm | - | 586 W/m² | - |
| 1788619510 | 32.22° C | 69% | 1019.6 hPa | 0 mm | - | 559 W/m² | - |
| 1788619209 | 32.78° C | 70% | 1019.8 hPa | 0 mm | - | 541 W/m² | - |
* Rain latest hour (hover to see other rain measurements)
** Current wind speed in m/s (hover to see current wind gust speed)